QPF
0.00 0.00 0.00 0.00 0.00 0.00 0.00 0.00 0.00 0.01 0.01 0.01 0.01 0.01 0.01 0.01 0.01 0.01 0.02 0.02 0.03 0.04 0.06 0.07 0.07 0.09 0.09 0.08 0.08 0.09 0.07 0.07 0.07 0.05 0.04 0.04 0.05 0.05 0.04 0.03 0.02 0.02 0.01 0.01
0.00 0.00 0.00 0.00 0.00 0.00 0.00 0.00 0.00 0.00 0.01 0.01 0.01 0.01 0.01 0.01 0.01 0.02 0.02 0.02 0.03 0.04 0.05 0.06 0.06 0.06 0.06 0.07 0.06 0.06 0.06 0.06 0.05 0.06 0.08 0.10 0.09 0.08 0.07 0.05 0.04 0.04 0.03 0.03
0.00 0.00 0.00 0.00 0.00 0.00 0.00 0.00 0.00 0.00 0.00 0.00 0.01 0.01 0.01 0.02 0.02 0.03 0.03 0.03 0.03 0.04 0.05 0.05 0.04 0.04 0.04 0.05 0.06 0.05 0.06 0.07 0.08 0.15 0.19 0.19 0.16 0.10 0.07 0.06 0.05 0.04 0.03 0.03
0.00 0.00 0.00 0.00 0.00 0.01 0.01 0.01 0.00 0.00 0.00 0.00 0.01 0.02 0.02 0.03 0.03 0.03 0.03 0.03 0.03 0.04 0.05 0.04 0.04 0.05 0.05 0.06 0.11 0.11 0.08 0.08 0.10 0.12 0.13 0.13 0.10 0.09 0.07 0.04 0.03 0.02 0.02 0.03
0.00 0.00 0.00 0.01 0.01 0.02 0.01 0.01 0.01 0.01 0.01 0.01 0.02 0.02 0.02 0.02 0.02 0.03 0.04 0.04 0.04 0.04 0.05 0.06 0.06 0.05 0.04 0.04 0.09 0.15 0.12 0.12 0.10 0.07 0.06 0.06 0.07 0.07 0.05 0.04 0.03 0.03 0.04 0.04
0.00 0.00 0.00 0.01 0.01 0.01 0.01 0.01 0.01 0.01 0.01 0.01 0.02 0.02 0.02 0.01 0.02 0.02 0.03 0.05 0.04 0.04 0.05 0.06 0.06 0.06 0.06 0.07 0.08 0.14 0.18 0.15 0.10 0.07 0.04 0.03 0.03 0.04 0.04 0.03 0.03 0.04 0.05 0.05
0.00 0.00 0.00 0.01 0.01 0.01 0.01 0.01 0.01 0.02 0.02 0.02 0.02 0.02 0.01 0.01 0.02 0.03 0.03 0.05 0.05 0.05 0.07 0.07 0.06 0.07 0.09 0.12 0.11 0.12 0.14 0.13 0.12 0.09 0.06 0.04 0.03 0.03 0.04 0.04 0.05 0.05 0.06 0.06
0.01 0.00 0.00 0.00 0.01 0.01 0.01 0.01 0.01 0.01 0.01 0.02 0.02 0.01 0.01 0.02 0.02 0.03 0.04 0.04 0.05 0.06 0.07 0.08 0.08 0.07 0.06 0.08 0.10 0.11 0.11 0.11 0.11 0.12 0.11 0.08 0.07 0.06 0.06 0.06 0.07 0.07 0.06 0.05
0.01 0.01 0.01 0.01 0.00 0.01 0.01 0.01 0.02 0.03 0.03 0.02 0.02 0.02 0.02 0.02 0.03 0.05 0.04 0.03 0.03 0.04 0.04 0.04 0.05 0.06 0.05 0.05 0.06 0.07 0.08 0.09 0.09 0.11 0.18 0.16 0.12 0.10 0.10 0.09 0.08 0.07 0.06 0.05
0.01 0.01 0.01 0.01 0.01 0.01 0.01 0.01 0.03 0.04 0.04 0.03 0.03 0.03 0.02 0.02 0.03 0.05 0.05 0.04 0.03 0.03 0.03 0.04 0.03 0.02 0.03 0.04 0.04 0.04 0.04 0.05 0.06 0.08 0.11 0.16 0.15 0.13 0.11 0.11 0.15 0.16 0.13 0.09
0.02 0.02 0.03 0.02 0.01 0.01 0.01 0.02 0.03 0.03 0.05 0.04 0.04 0.03 0.02 0.02 0.02 0.04 0.04 0.03 0.03 0.04 0.03 0.03 0.03 0.03 0.02 0.02 0.03 0.03 0.03 0.03 0.04 0.06 0.09 0.10 0.12 0.12 0.11 0.08 0.08 0.10 0.12 0.13
0.03 0.03 0.04 0.03 0.02 0.02 0.02 0.02 0.03 0.03 0.06 0.04 0.02 0.02 0.02 0.01 0.01 0.02 0.02 0.02 0.02 0.03 0.04 0.03 0.02 0.03 0.03 0.02 0.03 0.03 0.03 0.04 0.03 0.04 0.05 0.06 0.07 0.08 0.06 0.05 0.05 0.05 0.07 0.08
0.04 0.07 0.05 0.04 0.04 0.04 0.04 0.04 0.04 0.04 0.05 0.03 0.02 0.02 0.03 0.02 0.01 0.01 0.02 0.02 0.02 0.02 0.03 0.05 0.05 0.04 0.03 0.03 0.04 0.05 0.05 0.05 0.04 0.04 0.03 0.04 0.04 0.05 0.05 0.04 0.04 0.05 0.05 0.06
0.04 0.07 0.06 0.07 0.07 0.05 0.05 0.04 0.04 0.03 0.04 0.03 0.02 0.01 0.02 0.01 0.01 0.02 0.03 0.03 0.02 0.03 0.03 0.03 0.04 0.05 0.04 0.04 0.04 0.05 0.05 0.05 0.04 0.05 0.05 0.04 0.03 0.03 0.03 0.03 0.03 0.04 0.04 0.05
0.05 0.06 0.08 0.10 0.10 0.09 0.08 0.07 0.05 0.04 0.04 0.03 0.02 0.02 0.01 0.01 0.02 0.02 0.03 0.04 0.03 0.02 0.02 0.02 0.02 0.02 0.03 0.04 0.04 0.04 0.04 0.05 0.05 0.05 0.05 0.04 0.04 0.04 0.03 0.03 0.04 0.04 0.05 0.05
0.04 0.05 0.05 0.07 0.08 0.08 0.08 0.07 0.06 0.05 0.04 0.03 0.03 0.03 0.03 0.02 0.02 0.02 0.02 0.02 0.02 0.02 0.02 0.02 0.02 0.02 0.01 0.02 0.03 0.04 0.04 0.05 0.06 0.06 0.05 0.06 0.05 0.04 0.04 0.03 0.03 0.04 0.05 0.05
0.04 0.04 0.04 0.04 0.04 0.04 0.05 0.06 0.05 0.04 0.03 0.04 0.04 0.03 0.04 0.04 0.04 0.05 0.02 0.01 0.02 0.03 0.03 0.03 0.03 0.02 0.02 0.02 0.02 0.03 0.03 0.03 0.04 0.04 0.04 0.04 0.05 0.04 0.04 0.04 0.03 0.03 0.03 0.04
0.03 0.02 0.02 0.02 0.02 0.03 0.03 0.04 0.04 0.03 0.03 0.03 0.03 0.03 0.05 0.05 0.05 0.05 0.03 0.02 0.02 0.02 0.02 0.02 0.02 0.02 0.02 0.03 0.03 0.02 0.02 0.02 0.02 0.01 0.02 0.02 0.02 0.02 0.02 0.02 0.02 0.03 0.02 0.01
0.01 0.02 0.02 0.03 0.04 0.03 0.03 0.03 0.03 0.03 0.02 0.02 0.02 0.02 0.02 0.02 0.01 0.01 0.01 0.02 0.01 0.01 0.01 0.00 0.00 0.01 0.01 0.01 0.01 0.01 0.01 0.01 0.01 0.01 0.02 0.02 0.01 0.01 0.01 0.01 0.01 0.01 0.01 0.00
0.03 0.04 0.04 0.04 0.04 0.03 0.03 0.03 0.03 0.03 0.02 0.02 0.02 0.02 0.01 0.01 0.01 0.00 0.00 0.01 0.01 0.01 0.01 0.00 0.00 0.00 0.00 0.00 0.00 0.00 0.00 0.01 0.01 0.01 0.02 0.02 0.02 0.02 0.02 0.02 0.02 0.02 0.01 0.01
0.06 0.07 0.07 0.06 0.05 0.04 0.03 0.03 0.02 0.02 0.02 0.02 0.02 0.01 0.01 0.01 0.00 0.00 0.00 0.00 0.01 0.01 0.01 0.01 0.00 0.00 0.00 0.00 0.00 0.00 0.00 0.00 0.01 0.01 0.01 0.02 0.02 0.02 0.02 0.02 0.02 0.02 0.01 0.01
0.06 0.05 0.05 0.04 0.04 0.03 0.03 0.03 0.03 0.02 0.02 0.01 0.01 0.01 0.01 0.01 0.01 0.00 0.00 0.01 0.01 0.01 0.01 0.01 0.00 0.00 0.00 0.00 0.00 0.00 0.00 0.00 0.01 0.01 0.01 0.02 0.03 0.03 0.02 0.02 0.03 0.02 0.02 0.02
0.03 0.02 0.03 0.03 0.02 0.02 0.02 0.02 0.02 0.02 0.02 0.01 0.01 0.01 0.01 0.01 0.01 0.01 0.01 0.02 0.02 0.03 0.04 0.03 0.02 0.01 0.01 0.00 0.00 0.00 0.00 0.00 0.00 0.00 0.01 0.02 0.04 0.04 0.04 0.04 0.04 0.03 0.03 0.02
0.02 0.02 0.02 0.03 0.02 0.02 0.01 0.02 0.02 0.02 0.02 0.02 0.02 0.02 0.03 0.03 0.03 0.02 0.03 0.04 0.06 0.07 0.07 0.04 0.02 0.01 0.01 0.01 0.01 0.00 0.00 0.00 0.00 0.01 0.01 0.01 0.00 0.01 0.01 0.02 0.03 0.03 0.02 0.01
0.02 0.03 0.03 0.03 0.03 0.02 0.02 0.02 0.02 0.02 0.02 0.02 0.02 0.04 0.05 0.05 0.05 0.05 0.06 0.06 0.08 0.08 0.05 0.03 0.02 0.02 0.02 0.02 0.01 0.01 0.01 0.00 0.01 0.01 0.01 0.00 0.00 0.00 0.00 0.01 0.01 0.01 0.01 0.01
0.03 0.04 0.04 0.03 0.03 0.02 0.02 0.02 0.03 0.02 0.02 0.02 0.02 0.03 0.05 0.05 0.04 0.04 0.05 0.05 0.05 0.04 0.04 0.03 0.03 0.03 0.02 0.02 0.02 0.02 0.02 0.02 0.01 0.01 0.00 0.00 0.01 0.01 0.01 0.00 0.00 0.00 0.00 0.01
0.04 0.04 0.04 0.03 0.03 0.02 0.03 0.03 0.02 0.04 0.04 0.03 0.03 0.03 0.03 0.04 0.03 0.03 0.03 0.04 0.04 0.04 0.03 0.03 0.02 0.02 0.02 0.01 0.01 0.01 0.02 0.02 0.02 0.01 0.01 0.00 0.00 0.00 0.00 0.00 0.00 0.00 0.00 0.01
MSLP
1008.88 1008.42 1008.00 1007.62 1007.24 1006.81 1006.27 1005.56 1004.64 1003.53 1002.26 1000.90 999.56 998.35 997.36 996.66 996.27 996.19 996.36 996.72 997.19 997.69 998.18 998.64 999.07 999.52 1000.02 1000.61 1001.30 1002.11 1003.00 1003.93 1004.87 1005.75 1006.53 1007.21 1007.78 1008.27 1008.71 1009.14 1009.59 1010.07 1010.60 1011.16
1008.39 1007.81 1007.22 1006.62 1006.01 1005.34 1004.60 1003.76 1002.80 1001.73 1000.60 999.45 998.37 997.43 996.69 996.19 995.94 995.94 996.13 996.46 996.88 997.32 997.77 998.21 998.65 999.13 999.67 1000.30 1001.03 1001.86 1002.75 1003.66 1004.56 1005.39 1006.13 1006.77 1007.32 1007.81 1008.26 1008.71 1009.20 1009.73 1010.32 1010.92
1007.99 1007.33 1006.60 1005.82 1005.00 1004.14 1003.22 1002.26 1001.25 1000.21 999.18 998.21 997.33 996.60 996.06 995.73 995.61 995.67 995.88 996.20 996.59 997.01 997.45 997.90 998.38 998.91 999.51 1000.20 1000.97 1001.81 1002.68 1003.57 1004.41 1005.18 1005.86 1006.45 1006.96 1007.42 1007.87 1008.34 1008.85 1009.42 1010.03 1010.68
1007.70 1006.97 1006.13 1005.22 1004.25 1003.24 1002.19 1001.14 1000.09 999.08 998.13 997.28 996.56 996.00 995.61 995.40 995.36 995.47 995.71 996.03 996.41 996.83 997.28 997.77 998.30 998.89 999.55 1000.29 1001.09 1001.93 1002.78 1003.62 1004.40 1005.10 1005.71 1006.23 1006.70 1007.13 1007.57 1008.03 1008.55 1009.13 1009.77 1010.43
1007.44 1006.65 1005.74 1004.74 1003.67 1002.56 1001.44 1000.34 999.29 998.32 997.45 996.70 996.10 995.66 995.39 995.27 995.30 995.45 995.70 996.03 996.42 996.85 997.33 997.85 998.44 999.08 999.79 1000.55 1001.36 1002.19 1003.01 1003.78 1004.49 1005.12 1005.66 1006.13 1006.55 1006.95 1007.36 1007.82 1008.33 1008.91 1009.53 1010.19
1007.07 1006.22 1005.26 1004.21 1003.09 1001.96 1000.83 999.74 998.73 997.82 997.04 996.40 995.92 995.60 995.42 995.38 995.47 995.66 995.93 996.27 996.67 997.12 997.62 998.17 998.79 999.46 1000.19 1000.96 1001.75 1002.55 1003.31 1004.02 1004.67 1005.23 1005.71 1006.13 1006.51 1006.89 1007.28 1007.72 1008.21 1008.77 1009.37 1010.00
1006.48 1005.56 1004.55 1003.48 1002.37 1001.26 1000.18 999.17 998.25 997.45 996.80 996.29 995.93 995.73 995.66 995.71 995.86 996.10 996.40 996.76 997.18 997.64 998.15 998.71 999.33 1000.00 1000.71 1001.46 1002.21 1002.96 1003.66 1004.31 1004.89 1005.40 1005.84 1006.23 1006.59 1006.95 1007.33 1007.75 1008.22 1008.74 1009.31 1009.90
1005.59 1004.59 1003.54 1002.47 1001.40 1000.36 999.38 998.49 997.72 997.08 996.58 996.24 996.04 995.98 996.03 996.19 996.42 996.72 997.08 997.47 997.90 998.37 998.88 999.43 1000.03 1000.66 1001.33 1002.02 1002.71 1003.38 1004.02 1004.61 1005.15 1005.62 1006.04 1006.42 1006.78 1007.14 1007.51 1007.92 1008.37 1008.85 1009.37 1009.91
1004.40 1003.32 1002.24 1001.18 1000.18 999.24 998.40 997.68 997.08 996.63 996.33 996.18 996.16 996.26 996.46 996.75 997.09 997.48 997.89 998.33 998.78 999.26 999.75 1000.28 1000.82 1001.40 1002.00 1002.61 1003.22 1003.82 1004.40 1004.93 1005.43 1005.89 1006.31 1006.69 1007.07 1007.44 1007.82 1008.22 1008.64 1009.09 1009.55 1010.03
1003.04 1001.89 1000.79 999.77 998.84 998.02 997.33 996.79 996.39 996.15 996.05 996.10 996.27 996.55 996.92 997.34 997.80 998.29 998.78 999.26 999.75 1000.23 1000.70 1001.18 1001.68 1002.18 1002.69 1003.22 1003.74 1004.27 1004.78 1005.28 1005.76 1006.21 1006.64 1007.05 1007.44 1007.83 1008.22 1008.61 1009.01 1009.42 1009.83 1010.24
1001.69 1000.49 999.40 998.43 997.59 996.90 996.36 995.99 995.78 995.73 995.83 996.06 996.42 996.87 997.39 997.95 998.54 999.12 999.69 1000.24 1000.75 1001.23 1001.69 1002.13 1002.56 1002.98 1003.41 1003.85 1004.30 1004.76 1005.22 1005.68 1006.14 1006.59 1007.04 1007.47 1007.89 1008.29 1008.68 1009.06 1009.43 1009.79 1010.15 1010.50
1000.57 999.39 998.33 997.43 996.69 996.12 995.72 995.50 995.45 995.56 995.82 996.21 996.71 997.30 997.95 998.63 999.32 1000.00 1000.64 1001.23 1001.77 1002.26 1002.70 1003.10 1003.47 1003.83 1004.19 1004.55 1004.93 1005.32 1005.74 1006.17 1006.61 1007.06 1007.51 1007.95 1008.37 1008.78 1009.16 1009.52 1009.85 1010.16 1010.46 1010.75
999.87 998.75 997.77 996.96 996.33 995.87 995.59 995.49 995.56 995.79 996.16 996.65 997.26 997.94 998.68 999.44 1000.20 1000.94 1001.63 1002.26 1002.82 1003.31 1003.73 1004.11 1004.44 1004.74 1005.04 1005.34 1005.65 1006.00 1006.37 1006.77 1007.19 1007.62 1008.06 1008.48 1008.89 1009.27 1009.62 1009.93 1010.22 1010.48 1010.72 1010.94
999.67 998.67 997.81 997.12 996.60 996.25 996.08 996.07 996.22 996.51 996.94 997.49 998.14 998.87 999.64 1000.44 1001.23 1001.99 1002.70 1003.35 1003.91 1004.40 1004.81 1005.15 1005.45 1005.72 1005.97 1006.22 1006.49 1006.79 1007.13 1007.49 1007.87 1008.26 1008.66 1009.05 1009.41 1009.73 1010.03 1010.29 1010.51 1010.70 1010.88 1011.05
999.95 999.12 998.42 997.87 997.48 997.24 997.15 997.21 997.41 997.74 998.18 998.74 999.38 1000.10 1000.86 1001.64 1002.42 1003.17 1003.86 1004.49 1005.04 1005.51 1005.90 1006.23 1006.50 1006.74 1006.96 1007.18 1007.42 1007.68 1007.97 1008.28 1008.61 1008.95 1009.29 1009.60 1009.89 1010.14 1010.36 1010.54 1010.69 1010.82 1010.94 1011.05
1000.61 999.97 999.46 999.07 998.82 998.69 998.69 998.80 999.03 999.36 999.80 1000.32 1000.92 1001.59 1002.29 1003.02 1003.74 1004.43 1005.08 1005.67 1006.18 1006.62 1006.98 1007.28 1007.53 1007.75 1007.95 1008.15 1008.36 1008.58 1008.83 1009.09 1009.36 1009.63 1009.88 1010.11 1010.31 1010.47 1010.59 1010.69 1010.76 1010.82 1010.88 1010.95
1001.48 1001.05 1000.73 1000.52 1000.41 1000.39 1000.47 1000.64 1000.88 1001.21 1001.61 1002.09 1002.62 1003.21 1003.83 1004.47 1005.10 1005.71 1006.28 1006.80 1007.25 1007.64 1007.97 1008.24 1008.47 1008.67 1008.85 1009.03 1009.21 1009.41 1009.61 1009.82 1010.02 1010.21 1010.38 1010.51 1010.61 1010.67 1010.71 1010.72 1010.72 1010.71 1010.72 1010.74
1002.39 1002.17 1002.04 1002.00 1002.03 1002.12 1002.28 1002.50 1002.76 1003.08 1003.45 1003.86 1004.32 1004.81 1005.33 1005.86 1006.38 1006.89 1007.36 1007.79 1008.17 1008.50 1008.77 1009.01 1009.21 1009.39 1009.56 1009.73 1009.89 1010.06 1010.22 1010.38 1010.52 1010.63 1010.71 1010.76 1010.77 1010.74 1010.69 1010.62 1010.56 1010.50 1010.46 1010.45
1003.23 1003.20 1003.24 1003.34 1003.50 1003.69 1003.93 1004.18 1004.46 1004.77 1005.10 1005.46 1005.84 1006.24 1006.65 1007.06 1007.47 1007.86 1008.22 1008.55 1008.85 1009.10 1009.32 1009.52 1009.69 1009.85 1010.00 1010.16 1010.30 1010.45 1010.58 1010.69 1010.78 1010.84 1010.85 1010.82 1010.75 1010.65 1010.54 1010.41 1010.30 1010.20 1010.14 1010.10
1003.96 1004.07 1004.25 1004.47 1004.73 1005.00 1005.29 1005.58 1005.87 1006.16 1006.46 1006.76 1007.06 1007.37 1007.68 1007.98 1008.27 1008.55 1008.80 1009.03 1009.24 1009.42 1009.59 1009.74 1009.88 1010.02 1010.16 1010.30 1010.44 1010.56 1010.67 1010.76 1010.81 1010.81 1010.78 1010.70 1010.58 1010.44 1010.28 1010.12 1009.97 1009.85 1009.77 1009.71
1004.59 1004.81 1005.08 1005.39 1005.71 1006.03 1006.35 1006.65 1006.94 1007.21 1007.46 1007.71 1007.94 1008.17 1008.38 1008.58 1008.77 1008.95 1009.10 1009.25 1009.37 1009.49 1009.61 1009.72 1009.83 1009.95 1010.08 1010.21 1010.33 1010.45 1010.54 1010.60 1010.62 1010.60 1010.54 1010.43 1010.29 1010.12 1009.94 1009.77 1009.61 1009.49 1009.39 1009.32
1005.19 1005.48 1005.80 1006.15 1006.50 1006.83 1007.15 1007.44 1007.70 1007.93 1008.14 1008.33 1008.50 1008.65 1008.78 1008.90 1009.01 1009.10 1009.18 1009.26 1009.33 1009.40 1009.47 1009.55 1009.64 1009.74 1009.86 1009.97 1010.09 1010.19 1010.26 1010.31 1010.32 1010.28 1010.20 1010.09 1009.94 1009.77 1009.60 1009.43 1009.28 1009.15 1009.05 1008.97
1005.81 1006.13 1006.47 1006.82 1007.16 1007.47 1007.76 1008.01 1008.23 1008.41 1008.57 1008.70 1008.81 1008.90 1008.97 1009.03 1009.08 1009.12 1009.15 1009.18 1009.21 1009.25 1009.29 1009.36 1009.43 1009.52 1009.62 1009.72 1009.82 1009.90 1009.96 1009.99 1009.99 1009.94 1009.86 1009.74 1009.61 1009.45 1009.29 1009.14 1009.00 1008.89 1008.79 1008.71
1006.48 1006.80 1007.13 1007.45 1007.75 1008.01 1008.25 1008.44 1008.61 1008.74 1008.84 1008.92 1008.98 1009.02 1009.06 1009.08 1009.09 1009.11 1009.12 1009.13 1009.15 1009.17 1009.21 1009.26 1009.33 1009.40 1009.48 1009.57 1009.64 1009.70 1009.74 1009.75 1009.73 1009.67 1009.59 1009.48 1009.35 1009.21 1009.08 1008.95 1008.83 1008.73 1008.64 1008.56
1007.18 1007.49 1007.78 1008.05 1008.29 1008.49 1008.66 1008.80 1008.90 1008.98 1009.04 1009.08 1009.11 1009.13 1009.14 1009.16 1009.17 1009.18 1009.19 1009.21 1009.23 1009.27 1009.31 1009.36 1009.41 1009.47 1009.53 1009.59 1009.63 1009.66 1009.66 1009.65 1009.60 1009.53 1009.44 1009.33 1009.21 1009.09 1008.98 1008.88 1008.78 1008.70 1008.61 1008.53
1007.85 1008.12 1008.37 1008.58 1008.77 1008.91 1009.02 1009.11 1009.16 1009.20 1009.23 1009.25 1009.27 1009.29 1009.31 1009.33 1009.36 1009.40 1009.43 1009.47 1009.52 1009.56 1009.61 1009.66 1009.71 1009.75 1009.79 1009.81 1009.81 1009.80 1009.76 1009.70 1009.62 1009.53 1009.42 1009.31 1009.20 1009.09 1008.99 1008.91 1008.84 1008.77 1008.69 1008.61
1008.41 1008.64 1008.84 1009.01 1009.15 1009.25 1009.32 1009.38 1009.41 1009.44 1009.46 1009.49 1009.52 1009.55 1009.60 1009.65 1009.71 1009.77 1009.84 1009.91 1009.98 1010.04 1010.10 1010.15 1010.18 1010.20 1010.20 1010.18 1010.14 1010.08 1009.99 1009.88 1009.76 1009.63 1009.51 1009.38 1009.27 1009.17 1009.08 1009.01 1008.95 1008.89 1008.83 1008.75
Thickness
5726 5734 5736 5736 5737 5737 5732 5728 5724 5733 5738 5752 5760 5764 5767 5769 5769 5770 5771 5772 5773 5773 5773 5772 5771 5769 5767 5764 5762 5760 5755 5750 5747 5745 5743 5742 5739 5737 5734 5732 5730 5728 5726 5724
5716 5726 5728 5727 5732 5735 5735 5735 5733 5736 5739 5755 5759 5759 5759 5761 5762 5762 5763 5764 5765 5765 5765 5764 5763 5761 5760 5757 5755 5753 5749 5745 5742 5740 5738 5736 5734 5732 5730 5728 5725 5723 5722 5720
5694 5711 5715 5708 5725 5729 5732 5737 5736 5732 5742 5749 5748 5751 5753 5756 5757 5757 5758 5758 5758 5759 5758 5758 5756 5755 5752 5751 5749 5745 5742 5739 5736 5735 5732 5730 5728 5725 5724 5722 5720 5718 5717 5715
5681 5692 5684 5712 5732 5733 5730 5733 5737 5740 5743 5744 5746 5748 5749 5751 5751 5751 5752 5752 5752 5752 5752 5751 5749 5748 5746 5743 5741 5738 5735 5733 5730 5728 5726 5724 5721 5719 5717 5716 5714 5713 5711 5710
5666 5670 5684 5707 5722 5724 5720 5722 5733 5733 5736 5736 5739 5738 5738 5745 5746 5746 5746 5746 5745 5745 5745 5743 5741 5740 5738 5734 5732 5730 5727 5726 5724 5722 5719 5716 5714 5713 5712 5710 5709 5708 5706 5704
5661 5665 5669 5698 5719 5726 5719 5710 5728 5729 5728 5729 5730 5720 5728 5737 5738 5738 5738 5737 5737 5737 5736 5734 5733 5732 5728 5724 5722 5720 5719 5718 5716 5714 5711 5710 5708 5706 5705 5704 5702 5701 5699 5698
5657 5661 5674 5701 5712 5715 5695 5705 5723 5724 5724 5724 5722 5725 5729 5731 5730 5729 5729 5728 5728 5727 5725 5725 5724 5722 5718 5715 5713 5712 5711 5710 5707 5705 5703 5703 5701 5699 5697 5696 5693 5691 5690 5689
5649 5653 5667 5698 5700 5696 5700 5712 5715 5716 5717 5718 5718 5720 5721 5721 5720 5718 5717 5718 5717 5716 5715 5715 5714 5712 5708 5706 5705 5704 5702 5700 5699 5697 5696 5695 5693 5691 5690 5688 5685 5682 5680 5679
5655 5662 5678 5686 5692 5698 5701 5701 5705 5707 5709 5710 5709 5709 5710 5709 5708 5708 5707 5706 5705 5705 5704 5703 5701 5700 5698 5697 5695 5694 5692 5691 5689 5687 5685 5684 5684 5682 5680 5678 5676 5673 5671 5671
5652 5662 5672 5679 5686 5690 5694 5696 5700 5701 5702 5702 5700 5700 5700 5698 5697 5696 5695 5695 5694 5693 5692 5690 5690 5689 5688 5687 5686 5684 5682 5680 5679 5678 5677 5676 5675 5673 5671 5669 5667 5665 5663 5662
5646 5657 5664 5671 5676 5681 5686 5690 5692 5694 5695 5694 5692 5691 5691 5689 5688 5686 5684 5684 5683 5683 5682 5680 5680 5679 5679 5677 5676 5673 5672 5670 5669 5667 5666 5665 5664 5662 5662 5661 5659 5656 5655 5653
5643 5653 5655 5662 5670 5676 5678 5679 5682 5684 5684 5685 5685 5683 5682 5680 5679 5677 5676 5675 5674 5673 5672 5671 5670 5669 5668 5667 5666 5665 5662 5661 5659 5658 5657 5656 5654 5652 5652 5650 5648 5646 5644 5643
5647 5653 5654 5661 5665 5669 5670 5673 5675 5677 5677 5676 5676 5675 5674 5672 5670 5668 5667 5666 5665 5664 5662 5661 5659 5658 5658 5658 5657 5656 5654 5652 5651 5649 5648 5646 5645 5643 5641 5640 5639 5637 5636 5635
5645 5647 5649 5654 5657 5662 5664 5666 5667 5668 5668 5669 5667 5667 5666 5663 5661 5659 5658 5657 5656 5655 5653 5651 5649 5648 5649 5649 5648 5646 5645 5644 5642 5640 5639 5637 5637 5635 5634 5632 5630 5629 5627 5625
5643 5645 5647 5650 5652 5654 5656 5657 5657 5657 5658 5658 5658 5657 5656 5654 5652 5650 5649 5647 5646 5645 5643 5642 5641 5639 5640 5639 5638 5636 5635 5634 5632 5632 5630 5629 5628 5627 5625 5623 5621 5619 5618 5616
5637 5640 5642 5642 5643 5645 5646 5648 5648 5648 5649 5648 5647 5647 5646 5646 5644 5642 5640 5638 5637 5636 5635 5634 5632 5631 5631 5630 5629 5627 5626 5625 5625 5623 5622 5621 5619 5617 5615 5613 5611 5610 5609 5608
5630 5631 5633 5634 5636 5637 5639 5641 5641 5641 5641 5640 5638 5637 5637 5637 5635 5633 5631 5630 5629 5628 5627 5626 5625 5624 5623 5622 5620 5619 5618 5617 5617 5615 5613 5612 5610 5608 5606 5604 5602 5601 5600 5598
5631 5632 5633 5633 5633 5633 5633 5634 5635 5634 5633 5633 5632 5631 5628 5627 5625 5624 5624 5623 5621 5619 5618 5618 5617 5616 5615 5614 5613 5611 5610 5609 5608 5606 5604 5603 5601 5600 5598 5596 5593 5591 5590 5588
5628 5628 5629 5630 5630 5630 5629 5629 5628 5627 5627 5626 5625 5622 5620 5618 5617 5617 5616 5615 5613 5611 5610 5610 5609 5608 5607 5607 5606 5604 5602 5602 5600 5598 5596 5595 5594 5592 5589 5587 5584 5581 5580 5579
5624 5625 5625 5625 5625 5625 5624 5623 5622 5620 5619 5618 5617 5614 5611 5610 5610 5609 5607 5606 5605 5604 5604 5603 5602 5601 5600 5599 5598 5596 5595 5594 5592 5590 5589 5587 5585 5583 5581 5579 5576 5574 5572 5570
5620 5620 5620 5619 5618 5618 5617 5616 5615 5613 5611 5611 5609 5606 5604 5603 5602 5601 5599 5597 5597 5597 5596 5596 5595 5594 5593 5592 5590 5589 5587 5586 5585 5583 5581 5580 5578 5576 5573 5571 5568 5566 5564 5563
5614 5614 5613 5613 5612 5610 5609 5608 5607 5606 5604 5602 5601 5599 5597 5596 5594 5593 5592 5591 5591 5591 5590 5589 5588 5587 5586 5585 5583 5582 5580 5579 5577 5576 5574 5572 5570 5569 5567 5565 5562 5560 5558 5556
5608 5608 5607 5606 5605 5603 5602 5601 5600 5599 5597 5596 5594 5592 5591 5590 5588 5587 5585 5585 5585 5585 5584 5583 5582 5581 5580 5578 5577 5575 5574 5572 5570 5569 5567 5566 5564 5562 5561 5559 5557 5554 5552 5549
5602 5601 5600 5599 5598 5596 5595 5594 5593 5593 5592 5590 5589 5588 5586 5584 5582 5581 5580 5580 5579 5578 5577 5576 5575 5575 5573 5572 5570 5569 5567 5566 5564 5563 5562 5560 5558 5556 5554 5552 5549 5547 5544 5542
5597 5595 5594 5593 5591 5590 5589 5588 5587 5587 5585 5584 5583 5582 5581 5579 5577 5576 5575 5574 5573 5572 5572 5571 5570 5568 5567 5565 5563 5562 5561 5560 5558 5557 5556 5554 5553 5550 5548 5545 5542 5539 5537 5534
5591 5589 5588 5587 5586 5585 5584 5583 5581 5580 5579 5577 5576 5576 5574 5573 5573 5571 5570 5569 5568 5567 5566 5565 5563 5562 5560 5559 5558 5557 5555 5554 5552 5551 5550 5548 5545 5543 5541 5538 5535 5532 5529 5526
5585 5583 5581 5580 5580 5580 5579 5578 5577 5575 5574 5574 5572 5571 5570 5568 5567 5566 5565 5564 5563 5562 5560 5559 5557 5556 5555 5554 5552 5551 5549 5548 5546 5544 5542 5540 5538 5536 5534 5531 5528 5524 5521 5518